Location: ?????
(32.7281°N, 34.9563°E)
Time: 03:53:10
(UTC+00:00)

CZ-4B R/B - Pass Details

Date: 12 March 2021
Orbit: 388 x 454 km, 97.6° (Epoch: 18 April)

Event Time Altitude Azimuth Distance (km) Brightness Sun altitude
Rises 16:44:43 0° 345° (NNW) 2,327 5.3 -13.2°
Reaches altitude 10° 16:47:49 10° 309° (NW) 1,479 4.9 -13.8°
Maximum altitude 16:48:53 11° 290° (WNW) 1,403 5.2 -14.1°
Drops below altitude 10° 16:49:57 10° 270° (W) 1,488 5.5 -14.3°
Sets 16:53:07 0° 234° (SW) 2,365 5.9 -14.9°
